Location: Kuffner-Sternwarte
(48.2130°N, 16.2960°E)
Time: 16:05:04
(UTC+02:00)

COROT - Pass Details

Date: 07 May 2026
Orbit: 594 x 855 km, 90.1° (Epoch: 21 May)

Event Time Altitude Azimuth Distance (km) Brightness Sun altitude
Rises 01:38:58 0° 350° (N) 3,421 10.5 -24.2°
Reaches altitude 10° 01:42:00 10° 334° (NNW) 2,458 9.3 -24.1°
Maximum altitude 01:45:51 20° 290° (WNW) 1,821 8.0 -23.9°
Enters shadow 01:47:23 18° 268° (W) 1,912 7.9 -23.8°
